Location: Brunembert
(50.7122°N, 1.8935°E)
Time: 03:18:51
(UTC+00:00)

Cosmos-2242 - Pass Details

Date: 22 April 2021
Orbit: 589 x 618 km, 82.5° (Epoch: 06 May)

Event Time Altitude Azimuth Distance (km) Brightness Sun altitude
Exits shadow 19:35:48 - 142° (SE) 2,362 5.5 -6.1°
Reaches altitude 10° 19:37:05 10° 133° (SE) 1,953 5.0 -6.3°
Maximum altitude 19:40:13 20° 86° (E) 1,412 4.4 -6.7°
Drops below altitude 10° 19:43:21 10° 39° (NE) 1,952 5.5 -7.1°
Sets 19:46:01 0° 23° (NNE) 2,855 6.6 -7.5°
